星链-36036(STARLINK-36036)

导读

STARLINK-36036是美国于2025年11月22日发射的星链卫星,隶属于SpaceX公司的星链互联网星座项目。星链项目旨在通过部署近地轨道卫星群,为全球提供高速低延迟的宽带互联网服务,该卫星入轨后将进一步扩充星链星座的规模,提升全球网络覆盖能力与服务稳定性。

基本信息
目录编号:
66608
目录名称:
STARLINK-36036
国际标识:
2025-270W
轨道中心:
EARTH
卫星名称:
星链-36036
卫星全名:
星链-36036(STARLINK-36036)
卫星状态:
在轨 (已飞行203 天)
发射日期:
2025-11-22 UTC
国别 :
美国 (US)
星等 :
--
轨道信息
数据来源 国际轨道数据 AOE轨道数据
星历时间 2026-06-12T00:24:04+0800
1天前
查看轨道信息
2026-06-10T07:00:00+0800
3天前
查看轨道信息
半长轴 6861.203km 6861.177km
偏心率 0.0001404 0.0000692
轨道倾角 43.001° 43.005°
近地点辐角 264.964° 267.131°
升交点赤经 245.121° 254.870°
平近点角 95.105° 315.296°
近地点 482.102km 482.565km
远地点 484.03km 483.515km
周期 94.267分钟 94.267分钟
每日圈数 15.275746 15.275833
详细信息
固有亮度:
5
最大亮度:
2.5
卫星平台:
Starlink V1.0
覆盖范围:
全球
运营商:
太空探索技术公司
运营商所在国:
美国
制造商(研发单位):
太空探索技术公司
制造商所在国:
美国
使用方式:
暂无
卫星简介
Starlink 计划是 SpaceX 推出的全球卫星互联网项目,通过发射低轨道卫星,为全球尤其是偏远地区提供高速、低延迟的互联网服务。自 2019 年起,Starlink 已部署数千颗卫星,旨在缩小全球数字鸿沟,推动互联网普及。该项目还为军事、航空等行业提供通信支持,带来广泛经济效益。
2D轨道图
3D轨道图
轨道高度分析图
轨道倾角分析图
轨道综合分析图
查看轨道综合分析图